W4RJF Weather Reports


time (UTC)temp
F
wind
direction
speed
knots
gust
knots
rain 1hr
in
rain 24hr
in
rain mn
in
humidity
%
barometer
mb
20260503055008 45 158 0.0 0.0 0.00 0.14 0.00 95 1015.1
20260503054526 45 158 0.0 0.0 0.00 0.14 0.00 95 1015.0
20260503053506 46 158 0.0 0.0 0.00 0.14 0.00 95 1015.0
20260503053023 46 158 0.0 0.0 0.00 0.14 0.00 95 1014.8
20260503052509 46 158 0.0 0.0 0.00 0.14 0.00 95 1014.8
20260503051525 46 158 0.0 0.0 0.00 0.14 0.00 95 1015.0
20260503051009 46 158 0.0 0.0 0.00 0.14 0.00 95 1015.0
20260503050508 46 158 0.0 0.0 0.00 0.14 0.00 95 1015.0
20260503050022 46 158 0.0 0.0 0.00 0.14 0.00 95 1015.1
20260503045509 46 158 0.0 0.0 0.00 0.14 0.00 95 1015.1
20260503044520 46 158 0.0 0.0 0.00 0.14 0.00 95 1015.1
20260503043508 46 158 0.0 0.0 0.00 0.14 0.00 95 1014.9
20260503043024 46 158 0.0 0.0 0.00 0.14 0.00 95 1014.9
20260503042508 46 158 0.0 0.0 0.00 0.14 0.00 95 1015.0
20260503041535 46 158 0.0 0.0 0.00 0.14 0.00 95 1014.9
20260503035508 47 158 0.0 0.0 0.00 0.14 0.14 95 1014.8
20260503035010 47 158 0.0 0.0 0.00 0.14 0.14 95 1014.7
20260503034516 47 158 0.0 0.0 0.00 0.14 0.14 95 1014.6
20260503033022 48 158 0.0 0.0 0.00 0.14 0.14 95 1014.5
20260503032511 48 158 0.0 0.0 0.00 0.14 0.14 95 1014.5
20260503031521 48 158 0.0 0.0 0.00 0.14 0.14 95 1014.5
20260503030510 48 158 0.0 0.0 0.00 0.14 0.14 95 1014.3
20260503030028 48 158 0.0 0.0 0.00 0.14 0.14 95 1014.3
20260503024010 49 158 0.0 0.0 0.00 0.14 0.14 95 1014.1
20260503023510 49 158 0.0 0.0 0.00 0.14 0.14 95 1014.1
20260503023016 49 158 0.0 0.0 0.00 0.14 0.14 95 1014.0
20260503022008 49 158 0.0 0.0 0.00 0.14 0.14 95 1013.9
20260503021525 49 158 0.0 0.0 0.00 0.14 0.14 95 1014.0
20260503021009 49 158 0.0 0.0 0.00 0.14 0.14 95 1014.1
20260503020024 49 158 0.0 0.0 0.00 0.14 0.14 94 1014.1
20260503015509 49 158 0.0 0.0 0.00 0.14 0.14 94 1014.1
20260503014527 49 158 0.0 0.0 0.00 0.14 0.14 94 1014.1
20260503013032 50 158 0.0 0.0 0.00 0.14 0.14 94 1013.9
20260503012511 50 158 0.0 0.0 0.00 0.14 0.14 94 1013.9
20260503012009 50 158 0.0 0.0 0.00 0.14 0.14 94 1013.9
20260503011520 50 158 0.0 0.0 0.00 0.14 0.14 94 1013.8
20260503011010 50 158 0.0 0.0 0.00 0.14 0.14 94 1013.7
20260503010025 51 158 0.0 0.0 0.00 0.14 0.14 94 1013.6
20260503005011 51 158 0.0 0.0 0.00 0.14 0.14 93 1013.4
20260503004526 51 158 0.0 0.0 0.00 0.14 0.14 93 1013.3
20260503002503 52 158 0.0 0.0 0.00 0.14 0.14 92 1013.2
20260503002007 52 158 0.0 0.0 0.00 0.14 0.14 92 1013.2
20260503001516 52 158 0.0 0.0 0.00 0.14 0.14 92 1013.0
20260503001007 52 158 0.0 0.0 0.00 0.14 0.14 92 1012.9
20260503000505 52 157 0.0 0.0 0.00 0.14 0.14 92 1012.7
20260503000020 52 157 0.0 0.0 0.00 0.14 0.14 92 1012.6
20260502235003 52 157 0.0 0.0 0.00 0.14 0.14 90 1012.5
20260502234508 53 157 0.0 0.0 0.00 0.14 0.14 90 1012.5
20260502234001 53 157 0.0 0.0 0.00 0.14 0.14 91 1012.5
20260502233503 53 157 0.0 0.0 0.00 0.14 0.14 90 1012.4
20260502233010 53 157 0.0 0.0 0.00 0.14 0.14 90 1012.5
20260502232006 53 157 0.0 0.0 0.00 0.14 0.14 90 1012.3
20260502231511 53 157 0.0 0.0 0.00 0.14 0.14 90 1012.3
20260502231007 53 157 0.0 0.0 0.00 0.14 0.14 89 1012.2
20260502230026 53 157 0.0 0.0 0.00 0.14 0.14 88 1012.2
20260502225508 53 157 0.0 0.0 0.00 0.14 0.14 88 1012.4
20260502224525 53 157 0.0 0.0 0.00 0.14 0.14 88 1012.2
20260502224008 53 157 0.0 0.0 0.00 0.14 0.14 87 1012.2
20260502223006 53 157 0.0 0.0 0.00 0.14 0.14 86 1012.3
20260502222002 54 157 0.0 0.0 0.00 0.14 0.14 87 1012.3
20260502221527 54 157 0.0 0.0 0.00 0.14 0.14 87 1012.2
20260502220508 54 157 0.0 0.0 0.00 0.14 0.14 87 1012.1
20260502220018 54 157 0.0 0.0 0.00 0.14 0.14 87 1012.1
20260502215507 54 157 0.0 0.0 0.00 0.14 0.14 86 1012.0
20260502214521 54 157 0.0 0.0 0.00 0.14 0.14 85 1012.1
20260502213024 54 157 0.0 1.7 0.00 0.14 0.14 84 1012.0
20260502212004 55 120 0.0 0.9 0.00 0.14 0.14 86 1012.0
20260502211509 55 111 0.0 0.9 0.00 0.14 0.14 85 1012.0
20260502210014 54 149 0.0 1.7 0.00 0.14 0.14 85 1012.1
20260502205008 55 103 0.0 0.0 0.00 0.14 0.14 85 1012.1
20260502204520 54 103 0.0 1.7 0.00 0.14 0.14 86 1012.1
20260502204011 54 103 0.0 1.7 0.00 0.14 0.14 82 1012.1
20260502203021 54 74 0.0 1.7 0.00 0.14 0.14 84 1012.1
20260502202007 54 63 0.0 1.7 0.00 0.14 0.14 85 1012.1
20260502201526 54 53 0.0 1.7 0.00 0.14 0.14 84 1012.1
20260502201004 54 57 0.0 1.7 0.00 0.14 0.14 86 1012.0
20260502200012 54 90 0.0 1.7 0.00 0.14 0.14 84 1012.1
20260502194515 54 96 0.0 1.7 0.00 0.14 0.14 86 1012.3
20260502193510 54 96 0.0 1.7 0.00 0.14 0.14 87 1012.4
20260502193023 54 98 0.0 1.7 0.00 0.14 0.14 88 1012.5
20260502192509 53 81 0.0 1.7 0.00 0.14 0.14 86 1012.5
20260502191526 53 88 0.0 1.7 0.00 0.15 0.14 87 1012.6
20260502191011 53 87 0.0 2.6 0.00 0.15 0.14 90 1012.6
20260502190509 53 80 0.0 2.6 0.00 0.15 0.14 90 1012.6
20260502190014 52 109 0.0 1.7 0.00 0.15 0.14 89 1012.5
20260502185503 52 100 0.9 1.7 0.00 0.15 0.14 90 1012.7
20260502184525 52 80 0.9 2.6 0.00 0.15 0.14 91 1012.7
20260502183028 52 98 0.0 3.5 0.00 0.15 0.14 93 1012.8
20260502182508 52 98 0.0 2.6 0.01 0.16 0.14 92 1012.8
20260502181522 52 109 0.0 1.7 0.01 0.17 0.14 93 1013.2
20260502164011 51 109 0.0 1.7 0.02 0.15 0.12 94 1013.5
20260502163507 51 108 0.0 1.7 0.02 0.15 0.12 94 1013.7
20260502163016 51 91 0.0 1.7 0.02 0.15 0.12 94 1014.0
20260502162008 51 93 0.0 1.7 0.02 0.14 0.11 94 1014.2
20260502152007 52 86 0.9 3.5 0.02 0.12 0.09 94 1013.7
20260502151518 52 98 0.0 2.6 0.02 0.12 0.09 94 1013.7
20260502151008 52 104 0.0 2.6 0.02 0.12 0.09 94 1013.9
20260502130509 52 240 0.0 1.7 0.03 0.08 0.05 93 1013.1
20260502123508 51 297 0.0 1.7 0.02 0.06 0.03 93 1012.4
20260502123030 51 292 0.0 1.7 0.02 0.06 0.03 93 1012.3
20260502122502 51 346 0.0 1.7 0.02 0.06 0.03 93 1012.2
20260502122002 51 346 0.0 1.7 0.02 0.06 0.03 93 1012.4
20260502121503 51 246 0.0 1.7 0.01 0.05 0.02 92 1012.4
20260502121002 51 9 0.0 1.7 0.01 0.05 0.02 93 1012.4
20260502120502 51 324 0.0 1.7 0.01 0.05 0.02 92 1012.4
20260502115502 51 53 0.0 1.7 0.01 0.05 0.02 92 1012.4
20260502115003 51 306 0.0 1.7 0.00 0.04 0.01 92 1012.4
20260502114504 51 52 0.0 1.7 0.01 0.04 0.01 92 1012.5
20260502114003 51 333 0.0 1.7 0.01 0.04 0.01 92 1012.7
20260502113505 51 330 0.0 1.7 0.01 0.04 0.01 92 1012.6
20260502112502 52 57 0.0 0.9 0.01 0.04 0.01 91 1012.7
20260502112002 52 328 0.0 1.7 0.01 0.04 0.01 91 1012.8
20260502111510 52 342 0.0 1.7 0.01 0.04 0.01 91 1012.9
20260502111002 52 329 0.0 1.7 0.01 0.04 0.01 91 1012.8
20260502110502 52 328 0.0 0.0 0.01 0.04 0.01 91 1012.8
20260502110009 52 328 0.0 1.7 0.01 0.04 0.01 91 1013.0
20260502105505 52 328 0.0 1.7 0.01 0.04 0.01 91 1012.9
20260502105003 52 199 0.0 0.9 0.01 0.04 0.01 91 1012.8
20260502104503 52 247 0.0 1.7 0.00 0.03 0.00 91 1012.8
20260502104004 53 9 0.0 1.7 0.00 0.03 0.00 91 1012.8
20260502103503 53 5 0.0 1.7 0.00 0.03 0.00 90 1012.9
20260502103004 53 317 0.0 1.7 0.00 0.03 0.00 90 1012.9
20260502102503 53 294 0.0 1.7 0.00 0.03 0.00 90 1012.9
20260502102002 53 311 0.0 1.7 0.00 0.03 0.00 90 1012.8
20260502101504 53 290 0.0 1.7 0.00 0.03 0.00 90 1012.7
20260502101002 53 350 0.0 1.7 0.00 0.03 0.00 90 1012.8
20260502100505 53 11 0.0 1.7 0.00 0.03 0.00 91 1012.8
20260502091504 53 323 0.0 0.0 0.00 0.03 0.00 92 1012.9
20260502091002 53 323 0.0 0.0 0.00 0.03 0.00 92 1012.9
20260502090502 53 323 0.0 0.9 0.00 0.03 0.00 92 1012.9
20260502071506 52 301 0.0 0.0 0.00 0.03 0.00 93 1011.8
20260502071003 52 301 0.0 0.0 0.00 0.03 0.00 93 1011.8
20260502070503 52 301 0.0 0.0 0.00 0.03 0.00 93 1011.8
20260502070009 52 301 0.0 0.0 0.00 0.03 0.00 93 1011.8
20260502065503 52 301 0.0 0.0 0.00 0.03 0.00 93 1012.0
20260502065003 52 301 0.0 0.0 0.00 0.03 0.00 93 1012.1
20260502064507 52 301 0.0 0.0 0.00 0.03 0.00 93 1012.1
20260502064007 52 250 0.0 0.0 0.00 0.03 0.00 94 1012.2
20260502063504 52 250 0.0 0.0 0.00 0.03 0.00 94 1012.2